• Processing (Info)

  • MPEC 2013-M11 : 2010 KK127

    The following Minor Planet Electronic Circular may be linked-to from your own Web pages, but must not otherwise be redistributed electronically.

    A form allowing access to any MPEC is at the bottom of this page.


    Read MPEC 2013-M10 Read MPEC 2013-M12


    M.P.E.C. 2013-M11                                Issued 2013 June 17, 23:04 UT
    
         The Minor Planet Electronic Circulars contain information on unusual
             minor planets and routine data on comets.  They are published
       on behalf of Commission 20 of the International Astronomical Union by the
              Minor Planet Center, Smithsonian Astrophysical Observatory,
                              Cambridge, MA 02138, U.S.A.
    
                 Prepared using the Tamkin Foundation Computer Network
    
                                  MPC@CFA.HARVARD.EDU
                URL http://www.minorplanetcenter.net/    ISSN 1523-6714
    
                                      2010 KK127
    
                               Revision to MPEC 2010-L41
    
    Additional Observations:
         K10KC7K ^C2013 06 09.24136 14 48 23.78 -05 02 37.9          22.8 RoEM011695
         K10KC7K ^C2013 06 09.24886 14 48 23.35 -05 02 36.5          22.7 RoEM011695
         K10KC7K ^C2013 06 09.25631 14 48 22.92 -05 02 33.8          22.6 RoEM011695
         K10KC7K ^C2013 06 10.28414 14 47 32.34 -04 58 47.0          22.8 RoEM011695
         K10KC7K ^C2013 06 10.29302 14 47 31.94 -04 58 44.9                oEM011695
         K10KC7K ^C2013 06 10.30046 14 47 31.48 -04 58 43.7                oEM011695
         K10KC7K ^C2013 06 10.30792 14 47 31.10 -04 58 41.8                oEM011695
    
    Observer details:
    695 Kitt Peak.  Observers R. S. McMillan, J. A. Larsen, J. V. Scotti,
        J. R. Hoscheidt.  Measurer J. A. Larsen.  2.3-m f/3 reflector + CCD.
    
    First and last observations above in comparison with prediction:
    Residuals in seconds of arc, reference and Delta-T
    130609 695 38.5+  4.5-    130610 695 36.9+  4.3-    MPO190723   -0.022 day
    
    Orbital elements:
    2010 KK127                                               Earth MOID = 0.2803 AU
    Epoch 2013 Apr. 18.0 TT = JDT 2456400.5                 MPC
    M 293.06502              (2000.0)            P               Q
    n   0.29588006     Peri.  157.60327     +0.94061131     +0.33944210
    a   2.2304488      Node   182.57237     -0.32691241     +0.90135075
    e   0.4242755      Incl.    6.94277     -0.09153495     +0.26897189
    P   3.33           H   20.7           G   0.15           U   1
    Residuals in seconds of arc
    100521 C51  0.9-  0.2-    100525 C51 (1.2-  2.9+)   100819 H21  0.8-  0.7+
    100521 C51  0.2+  1.0+    100526 C51  0.7-  0.6-    100819 H21  0.5-  0.5+
    100522 C51  1.4+  0.7-    100526 C51  0.7-  0.5+    100903 291  0.4-  0.3+
    100522 C51  1.1-  1.0-    100526 C51  0.4+  0.0     100903 291  0.6-  0.7+
    100523 C51  0.3-  0.9+    100526 C51  0.0   0.3+    100903 291  0.7+  0.4-
    100523 C51  0.8+  0.2-    100526 C51 (3.0-  0.4+)   101002 291  0.2-  0.3-
    100523 C51 (0.7+  1.8+)   100606 C51 (1.0+  2.6-)   101002 291  0.5+  1.0-
    100523 C51  0.8-  1.0+    100606 C51 (1.0-  1.7-)   101002 291  0.3+  1.3-
    100523 C51  0.2+  1.0-    100606 C51  0.1-  0.0     101013 291  0.4-  0.0
    100523 C51  0.4-  0.6-    100606 C51  1.0-  0.4+    101013 291  0.1-  0.3+
    100523 C51 (1.9-  1.6-)   100606 C51  0.3-  0.6+    101013 291  0.1-  0.1-
    100524 C51  0.5+  0.8-    100607 C51  0.2+  0.3+    101016 695  0.3+  0.2+
    100524 C51 (1.5-  2.6+)   100607 C51  0.6+  0.7-    101016 695  0.7+  0.1-
    100524 C51  0.3-  0.8-    100607 C51  0.3+  0.6-    101016 695  0.2+  0.3-
    100524 C51  1.2+  1.1+    100607 C51 (0.0   1.9-)   101114 291  0.1-  0.3+
    100524 C51 (2.7+  0.1-)   100607 C51 (1.7+  0.5-)   101114 291  0.0   0.4+
    100524 C51  0.8-  0.7+    100607 C51 (0.4-  2.0-)   101114 291  0.1-  0.4+
    100524 C51  0.4-  0.3-    100608 C51  0.8+  0.2-    130609 695  0.7+  0.4-
    100524 C51  0.3-  0.4+    100707 568  0.0   0.0     130609 695  0.2+  0.8-
    100524 C51  0.4+  0.4+    100707 568  0.0   0.0     130609 695  0.4-  0.2+
    100524 C51  0.9-  0.5+    100707 568  0.1+  0.0     130610 695  0.1-  0.4-
    100525 C51  0.2-  0.4+    100714 568  0.1-  0.0     130610 695  0.6+  0.2-
    100525 C51 (0.6-  1.6-)   100714 568  0.0   0.0     130610 695  0.6-  0.6-
    100525 C51  0.8+  0.5+    100813 H21  0.4-  0.7+    130610 695  0.7-  0.3-
    100525 C51  0.5-  1.2+    100813 H21  0.2-  0.0
    
    Ephemeris:
    2010 KK127               a,e,i = 2.23, 0.42, 7                   q = 1.2841
    Date    TT    R. A. (2000) Decl.     Delta      r     Elong.  Phase     V
    2013 05 18    15 12 16.4 -07 22 44   1.1048  2.1011   166.3     6.6    23.0
    ...
    2013 06 02    14 55 10.9 -05 36 51   1.0810  2.0231   149.8    14.6    23.2
    ...
    2013 06 10    14 47 46.4 -04 59 43   1.0878  1.9808   140.7    18.9    23.3
    ...
    2013 06 16    14 43 29.6 -04 42 45   1.1000  1.9489   134.1    22.0    23.4
    2013 06 17    14 42 54.1 -04 40 52   1.1026  1.9435   133.1    22.5    23.4
    2013 06 18    14 42 20.7 -04 39 15   1.1052  1.9382   132.0    22.9    23.4
    ...
    2013 06 24    14 39 47.1 -04 35 06   1.1237  1.9060   125.8    25.6    23.5
    ...
    2013 07 02    14 38 29.8 -04 43 59   1.1534  1.8629   118.1    28.8    23.6
    ...
    2013 07 17    14 42 40.6 -05 40 16   1.2185  1.7820   105.4    33.4    23.8
    
    A. U. Tomatic                (C) Copyright 2013 MPC           M.P.E.C. 2013-M11
    

    Read MPEC 2013-M10 Read MPEC 2013-M12


    MPEC number:

    Enter an MPEC number in one of the following forms:

    • 1997-B01 (the full form)
    • J97B01 (the packed version of the full form)
    • B01 (the abbreviated form)